[[{"header":{"parameterUnit":"m.s-1","parameterCategory":1,"la1":30.2991,"la2":30.254,"lo1":-89.0895,"lo2":-89.0444,"dy":0.0017,"dx":0.0017,"nx":28,"ny":28,"refTime":"2024-06-06T03:00:00:Z","depth":0,"parameterNumber":2,"parameterNumberName":"U-component_of_WINDS"},"data":[0,0,0,0,0,0,0,0,0,0,0,0,0,0,0,0,0,0,0,0,0,0,0,0,0,0,0,0,0,0,0,0,0,0,0,0,0,0,0,0,0,0,0,0,0,0,0,0,0,0,0,0,0,0,0,0,0,0,0.6229,0.6228,0,0.6116,0.6115,0.6114,0.6059,0.6059,0.6059,0.6059,0.594,0.5937,0.5934,0,0,0,0,0,0,0,0,0,0,0,0,0,0.6392,0.6389,0.6229,0.6228,0.6226,0.6117,0.6115,0.6113,0.6059,0.6059,0.6059,0.6059,0.5941,0.5938,0.5934,0,0,0,0,0,0,0,0,0,0,0,0,0,0.6304,0.6388,0.623,0.6186,0.6181,0.6117,0.6115,0.6113,0.6059,0.6059,0.6059,0.6059,0.5943,0.5938,0.5933,0.5903,0,0,0.5919,0.5917,0,0,0,0,0,0,0,0,0.6309,0.6299,0.6194,0.6189,0.6183,0.6102,0.6129,0.6043,0.6059,0.6105,0.6059,0.6059,0.5994,0.5985,0.5964,0.5897,0.5892,0.5918,0.5915,0.5913,0.5912,0,0,0,0,0,0,0,0.6316,0.6303,0.6184,0.6192,0.6186,0.617,0.6158,0.6112,0.6051,0.6101,0.6097,0.6085,0.5991,0.5968,0.596,0.5891,0.5918,0.5914,0.5911,0.5909,0.5789,0.5789,0,0,0,0,0,0,0.6329,0.6308,0.6188,0.6181,0.6248,0.6167,0.6154,0.6128,0.6051,0.6039,0.6085,0.6082,0.5976,0.5966,0.5956,0.5912,0.5913,0.5909,0.5906,0.5789,0.5789,0.5788,0,0,0,0,0,0,0.6333,0.6319,0.6193,0.6244,0.6226,0.6165,0.6136,0.6126,0.6103,0.6038,0.6027,0.6073,0.5976,0.5963,0.5916,0.5907,0.5907,0.5902,0.579,0.5789,0.5789,0.5827,0,0,0,0,0,0,0.6338,0.6321,0.631,0.6244,0.6224,0.6156,0.6136,0.6123,0.6095,0.6091,0.6025,0.6013,0.5975,0.5923,0.5911,0.5901,0.5899,0.579,0.5789,0.5789,0.5826,0.5828,0.5829,0,0,0,0,0,0.6344,0.6326,0.631,0.6296,0.6209,0.6156,0.6144,0.6101,0.6095,0.6082,0.604,0.6016,0.5911,0.5919,0.5905,0.5893,0.579,0.579,0.5789,0.5825,0.5827,0.5829,0,0,0,0,0,0,0.6393,0.6316,0.6298,0.6258,0.6214,0.6147,0.613,0.6105,0.6062,0.606,0.6007,0.5992,0.5949,0.5916,0.5927,0.5857,0.5848,0.5844,0.588,0.5882,0.5883,0.5891,0.5895,0,0,0,0,0,0.6399,0.6363,0.6298,0.6269,0.6247,0.6193,0.6168,0.6138,0.609,0.6071,0.6025,0.5978,0.5934,0.5906,0.5862,0.5821,0.5804,0.5806,0.5807,0.5809,0.5806,0.5777,0.5777,0.5786,0.5786,0.5786,0,0,0.6411,0.6365,0.6346,0.6277,0.6239,0.6201,0.6177,0.6139,0.6109,0.6064,0.6017,0.5982,0.5925,0.588,0.5858,0.5851,0.5799,0.5808,0.581,0.5805,0.5777,0.5776,0.5775,0.5786,0.5786,0.5786,0,0,0.6413,0.6376,0.6346,0.6308,0.6251,0.6214,0.6207,0.6143,0.6118,0.6069,0.6034,0.5997,0.5923,0.5883,0.5854,0.5837,0.5811,0.5824,0.5832,0.5805,0.5804,0.5803,0.5795,0.5792,0.5822,0.5822,0.5822,0,0.6435,0.6378,0.6334,0.6296,0.6266,0.6223,0.6191,0.6156,0.6087,0.6066,0.606,0.5964,0.5923,0.5866,0.5862,0.584,0.5828,0.5831,0.5808,0.5807,0.5805,0.5796,0.5793,0.5824,0.5823,0.5823,0.5823,0,0.6406,0.6367,0.6349,0.6284,0.6251,0.6217,0.6164,0.6137,0.6109,0.6072,0.6021,0.597,0.5914,0.5898,0.5872,0.5836,0.5834,0.5819,0.5808,0.5807,0.5797,0.5794,0.5826,0.5826,0.5825,0.5825,0,0,0.6438,0.6346,0.634,0.6308,0.6241,0.6208,0.617,0.6115,0.6091,0.6044,0.6009,0.5946,0.593,0.5897,0.5864,0.5841,0.5827,0.5828,0.5826,0.5828,0.5781,0.5791,0.5788,0.581,0.5809,0.5809,0.5785,0,0.6429,0.636,0.6317,0.6264,0.6225,0.6183,0.6149,0.6102,0.6066,0.6026,0.5985,0.594,0.5925,0.5904,0.5879,0.5834,0.5817,0.5836,0.5774,0.5773,0.5788,0.5784,0.5795,0.5776,0.5781,0.5781,0.578,0,0.641,0.6363,0.6307,0.6241,0.6222,0.6193,0.6137,0.6101,0.6046,0.602,0.5981,0.5948,0.5903,0.5897,0.5832,0.5846,0.5818,0.5792,0.579,0.5781,0.5775,0.5773,0.5769,0.5765,0.5774,0.5775,0.5775,0,0.6435,0.6358,0.6314,0.6288,0.621,0.619,0.6156,0.6102,0.607,0.6021,0.5999,0.5945,0.5915,0.5873,0.5825,0.5826,0.5764,0.5755,0.574,0.5741,0.5728,0.5729,0.5717,0.5714,0.5714,0.5714,0.5714,0,0.6428,0.6395,0.6323,0.6296,0.6256,0.6205,0.6166,0.6129,0.608,0.6042,0.6002,0.5968,0.5908,0.5864,0.5827,0.5777,0.5764,0.5741,0.5731,0.5743,0.5746,0.5723,0.5723,0.5713,0.5713,0.5713,0.5713,0,0.6449,0.6401,0.6349,0.6279,0.626,0.6233,0.6172,0.6142,0.6103,0.6055,0.6041,0.5979,0.5926,0.5874,0.5804,0.5778,0.5727,0.5715,0.5746,0.574,0.5727,0.5728,0.5698,0.5691,0.5695,0.5695,0.5695,0,0.6448,0.6421,0.6347,0.6319,0.6287,0.6243,0.621,0.6158,0.6125,0.6059,0.6036,0.598,0.5932,0.5849,0.5796,0.5741,0.5725,0.5719,0.5717,0.5729,0.5722,0.5723,0.5719,0.572,0.572,0.572,0.572,0,0.6449,0.6426,0.6381,0.6326,0.6288,0.6242,0.6195,0.6174,0.6113,0.6077,0.6023,0.5986,0.5912,0.5856,0.5793,0.5756,0.5727,0.5721,0.5714,0.5726,0.5744,0.5731,0.5747,0.5722,0.5722,0.5722,0.5722,0.5722,0.6457,0.643,0.6373,0.6323,0.6282,0.6238,0.6205,0.6161,0.6115,0.6051,0.6023,0.5967,0.5909,0.5822,0.5785,0.5739,0.5732,0.5723,0.572,0.5718,0.5719,0.5753,0.5728,0.5728,0.5727,0.5727,0.5727,0,0.6454,0.6415,0.6369,0.6304,0.6264,0.624,0.6186,0.6153,0.6105,0.6054,0.6007,0.5942,0.5886,0.5829,0.5769,0.5743,0.5727,0.5728,0.5729,0.572,0.573,0.5741,0.5742,0.5742,0.5742,0.5742,0.5742,0.5742,0.6448,0.6399,0.6368,0.6297,0.6258,0.6203,0.6173,0.6131,0.609,0.6019,0.5973,0.5936,0.588,0.5816,0.5763,0.5747,0.5726,0.573,0.571,0.5721,0.572,0.5719,0.5729,0.5726,0.5726,0.5703,0.5703,0.5703]},{"header":{"parameterUnit":"m.s-1","parameterCategory":1,"la1":30.2991,"la2":30.254,"lo1":-89.0895,"lo2":-89.0444,"dy":0.0017,"dx":0.0017,"nx":28,"ny":28,"refTime":"2024-06-06T03:00:00:Z","depth":0,"parameterNumber":3,"parameterNumberName":"V-component_of_WINDS"},"data":[0,0,0,0,0,0,0,0,0,0,0,0,0,0,0,0,0,0,0,0,0,0,0,0,0,0,0,0,0,0,0,0,0,0,0,0,0,0,0,0,0,0,0,0,0,0,0,0,0,0,0,0,0,0,0,0,0,0,3.2574,3.2575,0,3.2687,3.2688,3.2689,3.2679,3.2677,3.2675,3.2674,3.2786,3.2791,3.2795,0,0,0,0,0,0,0,0,0,0,0,0,0,3.2343,3.2348,3.2573,3.2575,3.2576,3.2687,3.2688,3.269,3.2679,3.2677,3.2675,3.2673,3.2785,3.279,3.2796,0,0,0,0,0,0,0,0,0,0,0,0,0,3.2449,3.2349,3.2573,3.2584,3.2586,3.2686,3.2688,3.269,3.2679,3.2677,3.2674,3.2672,3.2783,3.279,3.2796,3.2892,0,0,3.2818,3.2821,0,0,0,0,0,0,0,0,3.2443,3.2457,3.2581,3.2584,3.2586,3.2666,3.2648,3.2758,3.268,3.2644,3.2674,3.267,3.2748,3.2758,3.2785,3.2897,3.2902,3.2818,3.2823,3.2825,3.2827,0,0,0,0,0,0,0,3.2435,3.2452,3.2618,3.2583,3.2586,3.2582,3.2594,3.2669,3.2709,3.2647,3.2647,3.266,3.2749,3.2778,3.2787,3.2903,3.2818,3.2824,3.2829,3.2831,3.3097,3.31,0,0,0,0,0,0,3.2426,3.2446,3.2615,3.2622,3.2507,3.2589,3.2602,3.2643,3.2708,3.2716,3.2662,3.2659,3.2767,3.2779,3.2791,3.2906,3.2825,3.2832,3.2836,3.3094,3.3098,3.3101,0,0,0,0,0,0,3.2421,3.2441,3.261,3.2534,3.2555,3.2595,3.2641,3.2647,3.2676,3.272,3.2727,3.2685,3.2766,3.2781,3.2867,3.2909,3.2835,3.2841,3.3091,3.3095,3.3099,3.3136,0,0,0,0,0,0,3.2415,3.244,3.2477,3.2535,3.2559,3.2685,3.2644,3.2651,3.2688,3.2685,3.2743,3.275,3.2765,3.2856,3.2873,3.2918,3.2847,3.3087,3.3093,3.3098,3.3131,3.3141,3.3149,0,0,0,0,0,3.2406,3.2483,3.2479,3.25,3.2607,3.2688,3.2701,3.2718,3.2692,3.2729,3.2757,3.2748,3.2902,3.2865,3.2884,3.2931,3.3085,3.3091,3.3098,3.3127,3.3139,3.3149,0,0,0,0,0,0,3.2428,3.249,3.2487,3.2585,3.2631,3.2686,3.2733,3.2731,3.2784,3.2779,3.2796,3.281,3.2895,3.2922,3.2879,3.3026,3.299,3.3,3.3005,3.3017,3.3026,3.3017,3.2853,0,0,0,0,0,3.2445,3.2506,3.2556,3.2637,3.2661,3.2693,3.2729,3.2737,3.2786,3.2805,3.2839,3.2885,3.2944,3.2982,3.3038,3.3135,3.3146,3.3176,3.3186,3.3193,3.3202,3.3253,3.3266,3.3122,3.3122,3.3122,0,0,3.2479,3.252,3.2558,3.2643,3.268,3.2741,3.271,3.2776,3.2822,3.2815,3.2897,3.2924,3.2976,3.3067,3.3109,3.3092,3.3244,3.3201,3.3207,3.3212,3.3261,3.3275,3.3287,3.3127,3.3126,3.3125,0,0,3.2572,3.261,3.2681,3.2719,3.2775,3.2796,3.2813,3.2868,3.2886,3.2969,3.2964,3.3018,3.3119,3.3156,3.3188,3.3294,3.3287,3.3311,3.3359,3.3409,3.342,3.343,3.3467,3.348,3.332,3.332,3.332,0,3.2607,3.27,3.2718,3.2785,3.2822,3.2819,3.289,3.2925,3.2996,3.3021,3.3001,3.3127,3.3162,3.3261,3.3286,3.3313,3.3331,3.3305,3.3417,3.3428,3.3437,3.3472,3.3486,3.3323,3.3322,3.3322,3.3322,0,3.274,3.2804,3.2855,3.2924,3.2967,3.3036,3.3062,3.3102,3.3107,3.3129,3.3213,3.3255,3.3319,3.3343,3.3348,3.3442,3.343,3.3414,3.3378,3.3453,3.3486,3.35,3.3326,3.3325,3.3325,3.3324,0,0,3.285,3.2928,3.2946,3.2977,3.3038,3.3088,3.3156,3.3219,3.3253,3.3302,3.3358,3.3443,3.3428,3.3464,3.3474,3.3517,3.3597,3.3496,3.3497,3.3512,3.3701,3.3712,3.3727,3.3593,3.3595,3.3597,3.3696,0,3.2948,3.307,3.3086,3.3193,3.3252,3.3249,3.3308,3.3351,3.3373,3.3426,3.345,3.3509,3.3486,3.3508,3.3551,3.3578,3.3634,3.3571,3.3643,3.3646,3.363,3.3745,3.3757,3.3848,3.3709,3.3711,3.3713,0,3.308,3.3133,3.3245,3.3297,3.3322,3.3375,3.3434,3.3484,3.3532,3.3545,3.3586,3.3589,3.3657,3.3619,3.3712,3.3668,3.3699,3.3716,3.372,3.3727,3.3683,3.3753,3.3878,3.3891,3.3734,3.3732,3.373,0,3.3147,3.3247,3.3326,3.3353,3.3416,3.3453,3.3481,3.3526,3.3563,3.3614,3.3637,3.3695,3.3727,3.3771,3.3789,3.376,3.3881,3.3844,3.3892,3.3892,3.3917,3.3915,3.4047,3.3939,3.3938,3.3938,3.3938,0,3.3254,3.3323,3.3357,3.3406,3.3482,3.35,3.3575,3.3601,3.3641,3.3694,3.3695,3.3744,3.3766,3.3818,3.3833,3.3907,3.3922,3.3933,3.3936,3.3932,3.3931,3.3952,3.3946,3.3942,3.3941,3.394,3.394,0,3.3343,3.3369,3.3455,3.3508,3.3522,3.3576,3.362,3.3667,3.3688,3.3755,3.3772,3.3805,3.3867,3.3889,3.3964,3.3974,3.4059,3.4057,3.4043,3.4044,3.409,3.4085,3.4239,3.426,3.4139,3.414,3.4141,0,3.3409,3.3462,3.352,3.3556,3.3585,3.3643,3.368,3.3699,3.3738,3.3796,3.3835,3.3896,3.3946,3.4044,3.4074,3.4131,3.413,3.418,3.4138,3.4133,3.4129,3.4126,3.413,3.4188,3.4189,3.419,3.4191,0,3.3524,3.3534,3.3588,3.3647,3.3691,3.3738,3.3784,3.3813,3.3838,3.3881,3.3945,3.3984,3.406,3.412,3.4178,3.4205,3.4202,3.4204,3.4218,3.4214,3.4203,3.4209,3.4063,3.42,3.4199,3.4198,3.4198,3.4197,3.3602,3.3648,3.3696,3.3756,3.3792,3.3835,3.3881,3.3908,3.3961,3.4025,3.4033,3.4101,3.4146,3.4223,3.4253,3.4305,3.4291,3.4312,3.4317,3.4321,3.4324,3.4196,3.4316,3.4315,3.4315,3.4315,3.4315,0,3.3716,3.3746,3.3801,3.3865,3.3912,3.3906,3.3955,3.3995,3.4054,3.4097,3.4146,3.4218,3.4276,3.4311,3.4369,3.4404,3.4404,3.4418,3.4416,3.4422,3.4334,3.4315,3.4417,3.4417,3.4417,3.4417,3.4417,3.4417,3.378,3.3857,3.3873,3.3967,3.3997,3.4064,3.4093,3.4131,3.4165,3.4245,3.4294,3.4317,3.4356,3.4417,3.4469,3.4478,3.4499,3.4514,3.4521,3.4438,3.4428,3.4418,3.4401,3.4519,3.4519,3.4605,3.4606,3.4606]}]]